Simultaneous Nadir Overpasses (SNOs) Predictions

Prediction of SNOs between AQUA and NOAA-19 Satellite Orbit:

Table of predicted SNOs for the next 14.0 days since TLE Epoch: 11/20/2021
Index Date (AQUA) Time (AQUA) Lat,Lon (AQUA) SZA (AQUA ) Date (NOAA-19) Time (NOAA-19) Lat,Lon (NOAA-19) SZA (NOAA-19 ) Distance(km) Time Diff (sec)
1 11/20/2021 08:07:41 78.28, 38.15 98.43 11/20/2021 08:06:57 78.25, 38.09 98.41 3.76 44
2 11/20/2021 08:57:07 -78.30,-154.27 81.55 11/20/2021 08:58:00 -78.30,-154.38 81.55 2.53 53
3 11/22/2021 13:41:22 -78.18, 135.25 81.21 11/22/2021 13:40:11 -78.07, 133.81 81.21 34.86 71
4 11/22/2021 14:30:52 78.29, -57.68 98.94 11/22/2021 14:31:01 78.27, -57.70 98.92 1.93 9
5 11/24/2021 20:04:35 -78.27, 38.99 80.63 11/24/2021 20:04:11 -78.26, 38.99 80.63 1.60 24
6 11/24/2021 20:54:03 78.30,-153.54 99.43 11/24/2021 20:55:05 78.30,-153.50 99.40 1.27 62
7 11/27/2021 01:38:19 78.24, 135.71 99.77 11/27/2021 01:37:11 78.24, 135.69 99.79 0.63 68
8 11/27/2021 02:27:46 -78.29, -56.88 80.17 11/27/2021 02:28:15 -78.29, -56.74 80.18 3.23 29
9 11/29/2021 08:01:30 78.26, 39.80 100.21 11/29/2021 08:01:15 78.26, 39.88 100.20 2.00 15
10 12/01/2021 13:35:13 -78.25, 136.43 79.45 12/01/2021 13:34:26 -78.23, 136.52 79.46 3.09 47
11 12/01/2021 14:24:40 78.25, -55.92 100.56 12/01/2021 14:25:19 78.27, -55.94 100.58 2.52 39
12 12/03/2021 19:58:22 -78.24, 40.70 79.12 12/03/2021 19:58:29 -78.25, 40.73 79.11 1.59 7



Historial Predications of SNOs between AQUA and NOAA-19
